CMS-03 (GSAT-7R)

Last updated on Tue Sep 22 2026 00:03:16 GMT+0000 (Coordinated Universal Time)

1 66311U 25249B 26264.50371741 -.00000081 00000+0 00000+0 0 9995 2 66311 0.0367 262.2971 0000718 241.1719 112.2417 1.00272716 3316
UTC large
Height (km)
Speed (km/s)
/
Latitude / Longitude
Inclination (degrees)
Orbital Period (minutes)
Azimuth
Elevation
Range (km)
Doppler Factor

Next 0 passes for location: London (51.5072 / 0.1276)

No passes found over London.
CMS-03 (GSAT-7R)